Погода в Сан Карлос Нуэво Гуаймасе

Мексика     27°56′43″N   111°03′13″W
темп.,
°C
ветер,
м/с
пор.,
м/с
влажн.,
%
обл.,
%
осадки,
мм/ч
давл.,
гПа
погр.,
м
16 мая, пн
пн1623:00+25ююз2249100 0.0 101018
02:00+24ююв1154100 0.0 100912
05:00+23вюв1156100 0.0 100912
08:00+26вюв2244100 0.0 1011182
11:00+30ююв4528100 0.0 1011566
14:00+30ю553789 0.0 1010538
17:00+28ю343810 0.0 1008338
20:00+25ююв235576 0.0 1009119
17 мая, вт
вт1723:00+24юв23680 0.0 1011101
02:00+23вюв33740 0.0 101071
05:00+22вюв34720 0.0 101186
08:00+25юв69520 0.0 1013539
11:00+28ю79520 0.0 1013783
14:00+28ю79520 0.0 1012649
17:00+27ю56460 0.0 1011448
20:00+24ююв23630 0.0 1011147
18 мая, ср
ср1823:00+23вюв23750 0.0 101391
02:00+22вюв35830 0.0 1013190
05:00+21вюв34830 0.0 1013144
08:00+24юв57650 0.0 1015553
11:00+28ююв675112 0.0 1014765
14:00+28ю66514 0.0 1012593
17:00+27ю4445100 0.0 1010385
20:00+24ю2263100 0.0 1012127
19 мая, чт
чт1923:00+23вюв1162100 0.0 101215
02:00+22в22673 0.0 101124
05:00+21вюв22710 0.0 101146
08:00+24юв34590 0.0 1012426
11:00+28ююв56460 0.0 1011766
14:00+28ю66420 0.0 1009691
17:00+27ююз45380 0.0 1008443
20:00+24ю23580 0.0 100894
20 мая, пт
пт2023:00+23ююв22600 0.0 100931
02:00+22вюв23700 0.0 100753
05:00+21вюв34770 0.0 1008114
08:00+24юв58600 0.0 1009665
11:00+26ю78420 0.0 1010786
14:00+26ю67450 0.0 1009669
17:00+26ю54410 0.0 1008478
20:00+24ююв23580 0.0 1009190